Weather History for KSPW - March, 2013

Change the Weather History Date:

Friday, March 29, 2013

  Actual Average (KEST) Record (KEST)
Temperature  
Mean Temperature 44 °F 39 °F  
Max Temperature 59 °F 49 °F - ()
Min Temperature 30 °F 29 °F - ()
Degree Days  
Heating Degree Days 20 26  
Month to date heating degree days 948  
Since 1 July heating degree days 6863  
Cooling Degree Days 0 0  
Month to date cooling degree days 0  
Year to date cooling degree days 0  
Moisture  
Dew Point 36 °F    
Average Humidity 74    
Maximum Humidity 92    
Minimum Humidity 53    
Precipitation  
Precipitation 0.00 in 0.09 in - ()
Month to date precipitation 1.45  
Sea Level Pressure  
Sea Level Pressure 30.19 in    
Wind  
Wind Speed 8 mph (SSE)    
Max Wind Speed 17 mph    
Max Gust Speed 25 mph    
Visibility 8 miles    
Events      
T = Trace of Precipitation, MM = Missing Value Source: NWS Daily Summary

Daily Weather History Graph

Daily Weather History Graph

Search for Another Location

Airport or City:

Trip Planner

Search our weather history database for the weather conditions in past years. The results will help you decide how hot, cold, wet, or windy it might be!

Date:

Astronomy

Mar. 29, 2013 Rise Set
Actual Time 7:07 AM CDT 7:44 PM CDT
Civil Twilight 6:38 AM CDT 8:12 PM CDT
Nautical Twilight 6:05 AM CDT 8:46 PM CDT
Astronomical Twilight 5:30 AM CDT 9:21 PM CDT
Moon 10:50 PM CDT (3/29) 8:12 AM CDT (3/29)
Length of Visible Light 13h 33m
Length of Day
12h 36m
Waning Gibbous, 93% of the Moon is Illuminated
Mar 29
Waning Gibbous
Apr 2
Last Quarter
Apr 10
New
Apr 18
First Quarter
Apr 25
Full

Hourly Weather History & Observations

Time (CDT) Temp. Windchill Dew Point Humidity Pressure Visibility Wind Dir Wind Speed Gust Speed Precip Events Conditions
12:53 AM 35.1 °F 29.3 °F 32.0 °F 89% 30.26 in 6.0 mi SSE 6.9 mph - N/A   Overcast
1:53 AM 33.1 °F 26.9 °F 30.0 °F 89% 30.27 in 7.0 mi SE 6.9 mph - N/A   Clear
2:53 AM 34.0 °F 31.0 °F 30.0 °F 85% 30.25 in 5.0 mi SE 3.5 mph - N/A   Clear
3:53 AM 30.9 °F - 28.0 °F 89% 30.25 in 5.0 mi Calm Calm - N/A   Partly Cloudy
4:53 AM 30.0 °F 25.2 °F 27.0 °F 88% 30.23 in 4.0 mi ESE 4.6 mph - N/A   Mostly Cloudy
5:53 AM 30.9 °F 26.2 °F 28.0 °F 89% 30.24 in 5.0 mi East 4.6 mph - N/A   Overcast
6:53 AM 32.0 °F 28.7 °F 30.0 °F 92% 30.24 in 4.0 mi ESE 3.5 mph - N/A   Overcast
7:53 AM 33.1 °F 28.7 °F 30.0 °F 89% 30.26 in 4.0 mi ESE 4.6 mph - N/A   Overcast
8:53 AM 37.9 °F 35.5 °F 33.1 °F 83% 30.27 in 5.0 mi ESE 3.5 mph - N/A   Haze
9:53 AM 42.1 °F 37.1 °F 35.1 °F 76% 30.27 in 8.0 mi SE 8.1 mph - N/A   Partly Cloudy
10:53 AM 45.0 °F 39.3 °F 37.0 °F 74% 30.26 in 8.0 mi South 11.5 mph - N/A   Partly Cloudy
11:53 AM 48.9 °F - 39.0 °F 69% 30.25 in 9.0 mi South 15.0 mph - N/A   Clear
12:53 PM 52.0 °F - 42.1 °F 69% 30.23 in 10.0 mi South 12.7 mph - N/A   Clear
1:53 PM 55.0 °F - 43.0 °F 64% 30.21 in 10.0 mi South 16.1 mph - N/A   Clear
2:53 PM 55.9 °F - 43.0 °F 62% 30.18 in 10.0 mi South 17.3 mph 25.3 mph N/A   Clear
3:53 PM 57.9 °F - 43.0 °F 58% 30.16 in 10.0 mi SSE 16.1 mph - N/A   Clear
4:53 PM 59.0 °F - 42.1 °F 53% 30.14 in 10.0 mi South 15.0 mph 25.3 mph N/A   Clear
5:53 PM 57.0 °F - 41.0 °F 55% 30.12 in 10.0 mi SSE 16.1 mph - N/A   Clear
6:53 PM 55.0 °F - 41.0 °F 59% 30.11 in 10.0 mi SSE 12.7 mph - N/A   Clear
7:53 PM 48.9 °F - 39.9 °F 71% 30.10 in 10.0 mi SE 10.4 mph - N/A   Clear
8:53 PM 46.0 °F 41.9 °F 37.9 °F 73% 30.09 in 10.0 mi SE 8.1 mph - N/A   Clear
9:53 PM 46.0 °F 41.0 °F 37.0 °F 71% 30.07 in 10.0 mi SE 10.4 mph - N/A   Scattered Clouds
10:53 PM 45.0 °F 39.7 °F 35.1 °F 68% 30.07 in 10.0 mi SSE 10.4 mph - N/A   Clear
11:53 PM 46.0 °F 39.9 °F 35.1 °F 66% 30.04 in 10.0 mi South 13.8 mph - N/A   Partly Cloudy